User: anonymous   Login
Location: Maiden
(35.5760°N, 81.2120°W)
Time: 05:30:30
(UTC-05:00)
Language:

Cosmos 2151 - Orbit

View from above orbital plane
View from above orbital plane
View from above satellite
View from above satellite

Ground track
Ground track

The orbit data is extracted from the following two-line orbital elements,

1 21422U 91042A   17321.86206694  .00000241  00000-0  21285-4 0  9991
2 21422  82.4996 100.2096 0015266 137.3337 222.9071 14.91891834431410
Epoch (UTC): 17 November 2017 20:41:22
Eccentricity: 0.0015266
inclination: 82.4996°
perigee height: 581 km
apogee height: 602 km
right ascension of ascending node: 100.2096°
argument of perigee: 137.3337°
revolutions per day: 14.91891834
mean anomaly at epoch: 222.9071°
orbit number at epoch: 43141

The dashed part of the orbit path shows where the satellite is in the earth's shadow,  

DLR